Weather History for Louisville, KY

Change the Weather History Date:

Tuesday, January 24, 2012

  Actual Average Record
Temperature  
Mean Temperature 38 °F 35 °F  
Max Temperature 46 °F 43 °F 77 °F (1943)
Min Temperature 30 °F 27 °F -20 °F (1963)
Degree Days  
Heating Degree Days 27 30  
Month to date heating degree days 641 720  
Since 1 July heating degree days 1976 2296  
Cooling Degree Days 0 0  
Month to date cooling degree days 0 0  
Year to date cooling degree days 0 0  
Moisture  
Dew Point 29 °F    
Average Humidity 69    
Maximum Humidity 89    
Minimum Humidity 49    
Precipitation  
Precipitation 0.00 in 0.11 in 3.11 in (1937)
Month to date precipitation 2.36 2.50  
Year to date precipitation 2.36 2.50  
Snow  
Snow 0.00 in 0.10 in 2.90 in (1948)
Month to date snowfall 1.8 2.7  
Since 1 July snowfall 1.8 5.5  
Snow Depth 0.00 in    
Sea Level Pressure  
Sea Level Pressure 30.23 in    
Wind  
Wind Speed 7 mph (WNW)    
Max Wind Speed 15 mph    
Max Gust Speed 18 mph    
Visibility 9 miles    
Events      
T = Trace of Precipitation, MM = Missing Value Source: NWS Daily Summary

Daily Weather History Graph

Daily Weather History Graph

Search for Another Location

Airport:

Trip Planner

Search our weather history database for the weather conditions in past years. The results will help you decide how hot, cold, wet, or windy it might be!

Date:

Astronomy

Jan. 24, 2012 Rise Set
Actual Time 7:54 AM EST 5:56 PM EST
Civil Twilight 7:25 AM EST 6:24 PM EST
Nautical Twilight 6:53 AM EST 6:56 PM EST
Astronomical Twilight 6:22 AM EST 7:27 PM EST
Moon 8:25 AM EST (1/24) 7:44 PM EST (1/24)
Length of Visible Light 10h 58m
Length of Day
10h 02m
New Moon, 2% of the Moon is Illuminated
Jan 24
New Moon
Jan 30
First Quarter
Feb 7
Full
Feb 14
Last Quarter
Feb 21
New

Hourly Weather History & Observations

Time (EST) Temp. Windchill Dew Point Humidity Pressure Visibility Wind Dir Wind Speed Gust Speed Precip Events Conditions
12:56 AM 43.0 °F 41.3 °F 34.0 °F 71% 30.04 in 10.0 mi SW 3.5 mph - N/A   Mostly Cloudy
1:56 AM 43.0 °F 40.3 °F 34.0 °F 71% 30.06 in 10.0 mi WSW 4.6 mph - N/A   Mostly Cloudy
2:56 AM 39.9 °F 36.7 °F 33.1 °F 77% 30.08 in 10.0 mi West 4.6 mph - N/A   Scattered Clouds
3:56 AM 39.0 °F - 32.0 °F 76% 30.09 in 10.0 mi Calm Calm - N/A   Clear
4:56 AM 37.0 °F 32.4 °F 30.9 °F 79% 30.11 in 10.0 mi WNW 5.8 mph - N/A   Clear
5:56 AM 34.0 °F 29.8 °F 30.0 °F 85% 30.14 in 9.0 mi West 4.6 mph - N/A   Scattered Clouds
6:56 AM 34.0 °F 28.8 °F 28.0 °F 79% 30.16 in 9.0 mi West 5.8 mph - N/A   Scattered Clouds
7:56 AM 34.0 °F 28.8 °F 28.9 °F 82% 30.18 in 5.0 mi SW 5.8 mph - N/A   Scattered Clouds
8:56 AM 36.0 °F 31.1 °F 28.9 °F 76% 30.20 in 6.0 mi SW 5.8 mph - N/A   Haze
9:56 AM 37.9 °F 29.2 °F 28.0 °F 68% 30.24 in 10.0 mi West 15.0 mph - N/A   Partly Cloudy
10:56 AM 39.9 °F 32.5 °F 28.0 °F 63% 30.26 in 10.0 mi West 12.7 mph - N/A   Scattered Clouds
11:56 AM 42.1 °F 35.7 °F 28.0 °F 58% 30.25 in 10.0 mi West 11.5 mph - N/A   Scattered Clouds
12:56 PM 43.0 °F 38.2 °F 28.9 °F 58% 30.24 in 10.0 mi WSW 8.1 mph - N/A   Scattered Clouds
1:56 PM 46.0 °F 42.5 °F 30.0 °F 54% 30.24 in 10.0 mi West 6.9 mph - N/A   Mostly Cloudy
2:56 PM 45.0 °F 43.5 °F 28.9 °F 53% 30.25 in 10.0 mi WSW 3.5 mph - N/A   Mostly Cloudy
3:56 PM 46.0 °F 41.9 °F 28.9 °F 51% 30.26 in 10.0 mi WNW 8.1 mph - N/A   Mostly Cloudy
4:56 PM 43.0 °F 36.4 °F 30.9 °F 62% 30.28 in 9.0 mi North 12.7 mph - N/A   Mostly Cloudy
5:56 PM 37.9 °F 30.9 °F 28.9 °F 70% 30.31 in 8.0 mi North 10.4 mph - N/A   Scattered Clouds
6:56 PM 36.0 °F 29.6 °F 28.0 °F 73% 30.34 in 9.0 mi North 8.1 mph - N/A   Partly Cloudy
7:56 PM 34.0 °F 27.2 °F 27.0 °F 75% 30.34 in 8.0 mi North 8.1 mph - N/A   Clear
8:56 PM 33.1 °F 28.7 °F 26.1 °F 75% 30.35 in 7.0 mi North 4.6 mph - N/A   Clear
9:56 PM 32.0 °F 27.5 °F 26.1 °F 79% 30.36 in 7.0 mi North 4.6 mph - N/A   Clear
10:56 PM 30.9 °F 27.5 °F 26.1 °F 82% 30.38 in 7.0 mi NNW 3.5 mph - N/A   Clear
11:56 PM 30.9 °F - 26.1 °F 82% 30.37 in 6.0 mi Calm Calm - N/A   Haze